[[{"header":{"parameterUnit":"m.s-1","parameterCategory":2,"la1":30.2992,"la2":30.254,"lo1":-89.0895,"lo2":-89.0443,"dy":0.0025,"dx":0.0025,"nx":19,"ny":19,"refTime":"2026-04-11T09:00:00:Z","depth":"0","parameterNumber":2,"parameterNumberName":"U-component_of_CURRENTS"},"data":[0,0,0,0.2685,0.2687,0.2713,0.2713,0.2733,0.2733,0,0,0,0,0,0,0,0,0,0,0,0.2674,0.2675,0.2685,0.2687,0.2713,0.2713,0.2733,0.2733,0,0,0,0,0,0,0,0,0,0,0,0.2674,0.2675,0.2675,0.2687,0.2713,0.2713,0.2733,0.2713,0,0,0,0,0,0,0,0,0,0,0.2687,0.2672,0.2674,0.2675,0.2687,0.2713,0.2713,0.2712,0.2714,0.2721,0,0.2736,0,0.2743,0.2735,0.2736,0,0,0,0.2672,0.267,0.2693,0.2675,0.2688,0.2713,0.2697,0.2713,0.2716,0.2724,0.2736,0.2737,0.2743,0.2736,0.2736,0.2811,0.2811,0,0,0.2671,0.2661,0.2692,0.2695,0.2708,0.2697,0.2698,0.2715,0.2714,0.2736,0.2738,0.2743,0.2736,0.2736,0.281,0.2811,0,0,0,0.2676,0.266,0.2682,0.2694,0.2705,0.2698,0.27,0.2712,0.2725,0.2738,0.2743,0.2736,0.2737,0.2809,0.281,0.2869,0,0,0,0.2675,0.2665,0.2682,0.2673,0.2705,0.2708,0.2697,0.2723,0.2726,0.2743,0.2736,0.2737,0.2809,0.281,0.2866,0.2931,0,0,0,0.267,0.2663,0.2675,0.2673,0.2693,0.2709,0.272,0.2724,0.273,0.2736,0.2737,0.2808,0.281,0.2864,0.2926,0.3094,0,0,0,0.2648,0.2667,0.2674,0.2693,0.2693,0.2728,0.272,0.2739,0.2746,0.2736,0.2809,0.281,0.2863,0.2922,0.3088,0.3114,0.3143,0,0,0.266,0.2668,0.2679,0.2687,0.2726,0.2722,0.2764,0.2771,0.277,0.2798,0.28,0.2867,0.2925,0.3093,0.3191,0.3218,0,0,0,0.2674,0.2687,0.2697,0.2722,0.2747,0.2795,0.2793,0.2809,0.285,0.2784,0.2878,0.2914,0.3018,0.3021,0.3042,0.2995,0.2816,0.2816,0.2816,0.2675,0.2697,0.2727,0.2765,0.2795,0.2842,0.2889,0.2918,0.2885,0.2923,0.2968,0.3147,0.3145,0.3163,0.3111,0.2954,0.2955,0.2955,0.2955,0.2716,0.2728,0.2772,0.281,0.2864,0.2907,0.2994,0.3005,0.3134,0.3042,0.314,0.3088,0.319,0.3126,0.2959,0.2958,0.2958,0.2957,0.2957,0.2716,0.2722,0.2756,0.2824,0.2896,0.2962,0.3087,0.3151,0.3228,0.331,0.3389,0.3387,0.3336,0.3385,0.3386,0.3387,0.3388,0.3389,0.3389,0.2687,0.2722,0.2748,0.2835,0.2866,0.2976,0.3159,0.3274,0.3464,0.3504,0.3505,0.3393,0.328,0.3269,0.3405,0.3402,0.34,0.3399,0.3398,0.2654,0.266,0.2706,0.2735,0.2839,0.2916,0.3133,0.3431,0.3622,0.3736,0.3667,0.3625,0.364,0.362,0.3618,0.3838,0.3838,0.3838,0.3838,0.2599,0.2621,0.2636,0.2673,0.2758,0.2877,0.3059,0.3359,0.3681,0.3794,0.382,0.3668,0.3652,0.3657,0.3637,0.3631,0.3849,0.3849,0.3849,0.256,0.2579,0.2567,0.2622,0.2698,0.2813,0.2933,0.3157,0.3623,0.3842,0.376,0.3759,0.3519,0.3498,0.3481,0.3456,0.3435,0,0]},{"header":{"parameterUnit":"m.s-1","parameterCategory":2,"la1":30.2992,"la2":30.254,"lo1":-89.0895,"lo2":-89.0443,"dy":0.0025,"dx":0.0025,"nx":19,"ny":19,"refTime":"2026-04-11T09:00:00:Z","depth":"0","parameterNumber":3,"parameterNumberName":"V-component_of_CURRENTS"},"data":[0,0,0,-0.0093,-0.0094,-0.0189,-0.0189,-0.0328,-0.0329,0,0,0,0,0,0,0,0,0,0,0,-0.0056,-0.0056,-0.0092,-0.0095,-0.0189,-0.019,-0.0328,-0.0329,0,0,0,0,0,0,0,0,0,0,0,-0.0055,-0.0056,-0.0056,-0.0095,-0.0189,-0.019,-0.0328,-0.0253,0,0,0,0,0,0,0,0,0,0,-0.0159,-0.0107,-0.0056,-0.0057,-0.0095,-0.0189,-0.019,-0.0249,-0.0257,-0.0289,0,-0.03,0,-0.032,-0.0339,-0.0339,0,0,0,-0.0098,-0.01,-0.014,-0.0057,-0.0096,-0.0189,-0.0147,-0.0254,-0.0263,-0.03,-0.0302,-0.0307,-0.0322,-0.034,-0.034,-0.0368,-0.0368,0,0,-0.0093,-0.0062,-0.0133,-0.0146,-0.0117,-0.0144,-0.015,-0.0259,-0.0259,-0.0303,-0.0311,-0.0324,-0.0341,-0.0342,-0.0369,-0.0368,0,0,0,-0.0076,-0.0058,-0.0095,-0.014,-0.0157,-0.0147,-0.0154,-0.0254,-0.0271,-0.0312,-0.0326,-0.0341,-0.0343,-0.037,-0.0369,-0.0227,0,0,0,-0.0073,-0.0049,-0.0092,-0.0074,-0.0154,-0.0201,-0.0146,-0.0263,-0.0276,-0.0325,-0.0341,-0.0344,-0.0371,-0.0369,-0.0232,-0.0136,0,0,0,-0.0052,-0.0046,-0.0059,-0.0072,-0.0114,-0.02,-0.0222,-0.0266,-0.0284,-0.0339,-0.0345,-0.0371,-0.0369,-0.0237,-0.0146,-0.0008,0,0,0,-0.0015,-0.0005,-0.0058,-0.0046,-0.0113,-0.0137,-0.0221,-0.0255,-0.0293,-0.0342,-0.037,-0.0369,-0.0239,-0.0152,-0.0016,0.0154,0.0201,0,0,0.0022,0.0,0.0009,-0.0041,-0.0036,-0.0125,-0.0097,-0.0192,-0.0276,-0.0339,-0.034,-0.023,-0.0147,-0.001,0.0255,0.03,0,0,0,0.0038,0.0042,0.0034,0.0022,-0.0018,-0.0013,-0.0113,-0.014,-0.0189,-0.0292,-0.0234,-0.0186,-0.0103,-0.0018,0.0018,-0.015,-0.0361,-0.0361,-0.0361,0.0117,0.0097,0.0127,0.0103,0.0096,0.0055,0.0065,0.0009,-0.0108,-0.0098,-0.0074,0.0124,0.0215,0.0244,0.0067,-0.0098,-0.0098,-0.0097,-0.0097,0.0189,0.0219,0.0209,0.0233,0.0233,0.0252,0.0232,0.0183,0.0207,0.0064,0.0136,0.0122,0.0292,0.0089,-0.0088,-0.009,-0.0091,-0.0092,-0.0092,0.0256,0.0275,0.0286,0.0343,0.0406,0.0396,0.0521,0.0452,0.0372,0.0423,0.0513,0.0512,0.0341,0.0453,0.0454,0.0455,0.0456,0.0457,0.0457,0.0328,0.0344,0.0406,0.0461,0.0522,0.0622,0.0689,0.0751,0.0791,0.0719,0.0719,0.0405,0.0293,0.028,0.0474,0.0471,0.0469,0.0467,0.0466,0.0413,0.0428,0.0522,0.0585,0.0737,0.093,0.0982,0.1192,0.1223,0.1291,0.0865,0.0881,0.0866,0.0837,0.0837,0.1163,0.1163,0.1163,0.1163,0.0481,0.0489,0.0628,0.0749,0.0923,0.1071,0.1431,0.1584,0.141,0.1258,0.1052,0.091,0.0889,0.0862,0.0832,0.0825,0.1141,0.114,0.114,0.0543,0.0573,0.0689,0.0805,0.1001,0.1265,0.1648,0.1916,0.155,0.1109,0.0787,0.0789,0.0535,0.0516,0.0426,0.0397,0.0368,0,0]}],[{"header":{"parameterUnit":"m.s-1","parameterCategory":2,"la1":30.2992,"la2":30.254,"lo1":-89.0895,"lo2":-89.0443,"dy":0.0025,"dx":0.0025,"nx":19,"ny":19,"refTime":"2026-04-11T09:00:00:Z","depth":"2","parameterNumber":2,"parameterNumberName":"U-component_of_CURRENTS"},"data":[0,0,0,0.2416,0.242,0.2545,0.2544,0.263,0.2631,0,0,0,0,0,0,0,0,0,0,0,0.2348,0.235,0.2415,0.242,0.2545,0.2544,0.263,0.2631,0,0,0,0,0,0,0,0,0,0,0,0.2348,0.2349,0.2351,0.2421,0.2545,0.2544,0.2629,0.2543,0,0,0,0,0,0,0,0,0,0,0.2426,0.2387,0.2349,0.2351,0.2422,0.2545,0.2544,0.2539,0.2548,0.2567,0,0.2607,0,0.2653,0.2639,0.264,0,0,0,0.2374,0.2379,0.2432,0.2352,0.2424,0.2545,0.2475,0.2544,0.2555,0.2579,0.2609,0.2614,0.2655,0.264,0.2641,0.2782,0.2782,0,0,0.2367,0.2347,0.2425,0.244,0.2484,0.2472,0.248,0.2551,0.2561,0.261,0.2617,0.2656,0.2641,0.2642,0.2781,0.2782,0,0,0,0.2379,0.2342,0.2393,0.2434,0.2482,0.2477,0.2486,0.2557,0.258,0.2618,0.2657,0.2642,0.2643,0.278,0.2781,0.284,0,0,0,0.2372,0.2353,0.239,0.2376,0.2482,0.2533,0.249,0.2574,0.2585,0.2657,0.2642,0.2644,0.278,0.2781,0.2837,0.2881,0,0,0,0.2338,0.2349,0.2376,0.2375,0.2455,0.2533,0.2558,0.2576,0.2611,0.264,0.2645,0.2779,0.2781,0.2834,0.2876,0.2962,0,0,0,0.2293,0.2354,0.2376,0.2423,0.2455,0.2548,0.2558,0.262,0.2646,0.2642,0.278,0.2781,0.2833,0.2873,0.2958,0.2853,0.2863,0,0,0.2344,0.2359,0.2377,0.2402,0.2472,0.2526,0.2626,0.2668,0.2674,0.2742,0.2746,0.2838,0.2876,0.2961,0.2938,0.2946,0,0,0,0.2373,0.2399,0.2418,0.2459,0.2523,0.2629,0.2687,0.2721,0.2783,0.271,0.2851,0.2874,0.2926,0.2854,0.2861,0.2788,0.2788,0.2788,0.2788,0.245,0.2437,0.249,0.2521,0.2577,0.2705,0.2779,0.2845,0.2839,0.2876,0.2931,0.305,0.2973,0.2977,0.2931,0.2932,0.2932,0.2932,0.2932,0.2533,0.252,0.2555,0.2609,0.2692,0.279,0.2906,0.2936,0.3052,0.2999,0.3046,0.293,0.2987,0.2937,0.2936,0.2935,0.2935,0.2935,0.2934,0.2515,0.2506,0.2576,0.2668,0.2772,0.288,0.298,0.3069,0.3116,0.3176,0.3125,0.3122,0.3102,0.3215,0.3216,0.3216,0.3217,0.3217,0.3218,0.2448,0.2512,0.2609,0.2729,0.2787,0.2904,0.3046,0.3109,0.3201,0.3205,0.3203,0.3147,0.3137,0.312,0.3227,0.3225,0.3224,0.3223,0.3222,0.2404,0.2457,0.2569,0.2661,0.2811,0.2797,0.2984,0.308,0.3201,0.3226,0.3216,0.3213,0.3196,0.3187,0.3171,0.3286,0.3286,0.3286,0.3286,0.2377,0.2416,0.2538,0.2634,0.2716,0.2734,0.268,0.2729,0.2915,0.2947,0.2961,0.2826,0.2833,0.2786,0.2787,0.2759,0.2767,0.2766,0.2764,0.2443,0.2436,0.2514,0.2584,0.2628,0.2595,0.2394,0.2254,0.2433,0.2737,0.2796,0.3265,0.3101,0.3098,0.305,0.3042,0.3007,0,0]},{"header":{"parameterUnit":"m.s-1","parameterCategory":2,"la1":30.2992,"la2":30.254,"lo1":-89.0895,"lo2":-89.0443,"dy":0.0025,"dx":0.0025,"nx":19,"ny":19,"refTime":"2026-04-11T09:00:00:Z","depth":"2","parameterNumber":3,"parameterNumberName":"V-component_of_CURRENTS"},"data":[0,0,0,-0.0009,-0.0013,-0.0154,-0.0154,-0.0329,-0.0331,0,0,0,0,0,0,0,0,0,0,0,0.0048,0.0047,-0.0009,-0.0013,-0.0154,-0.0154,-0.0329,-0.0331,0,0,0,0,0,0,0,0,0,0,0,0.0049,0.0047,0.0046,-0.0014,-0.0154,-0.0154,-0.0328,-0.0219,0,0,0,0,0,0,0,0,0,0,-0.0082,-0.002,0.0048,0.0046,-0.0015,-0.0154,-0.0154,-0.0214,-0.0226,-0.0269,0,-0.0302,0,-0.0334,-0.0344,-0.0345,0,0,0,0.0004,-0.001,-0.0069,0.0045,-0.0016,-0.0153,-0.0086,-0.0221,-0.0235,-0.0286,-0.0304,-0.0311,-0.0337,-0.0345,-0.0346,-0.0402,-0.0401,0,0,0.0011,0.0043,-0.006,-0.0078,-0.0068,-0.0081,-0.009,-0.0229,-0.0237,-0.0305,-0.0316,-0.034,-0.0347,-0.0348,-0.0402,-0.0401,0,0,0,0.0022,0.0049,-0.0006,-0.0071,-0.0105,-0.0086,-0.0096,-0.023,-0.0256,-0.0318,-0.0342,-0.0348,-0.035,-0.0403,-0.0402,-0.0282,0,0,0,0.0028,0.0053,-0.0003,0.0018,-0.0102,-0.0168,-0.0094,-0.0245,-0.0262,-0.0341,-0.0348,-0.0352,-0.0404,-0.0403,-0.0288,-0.02,0,0,0,0.0057,0.0057,0.0032,0.002,-0.0053,-0.0166,-0.0197,-0.0249,-0.0278,-0.0345,-0.0353,-0.0405,-0.0403,-0.0292,-0.0209,-0.013,0,0,0,0.0108,0.0086,0.0033,0.0026,-0.0052,-0.0111,-0.0196,-0.0251,-0.0299,-0.0349,-0.0404,-0.0402,-0.0294,-0.0215,-0.0136,-0.006,-0.0026,0,0,0.0115,0.0088,0.0093,0.0041,0.0023,-0.0089,-0.009,-0.0199,-0.0278,-0.0359,-0.036,-0.0286,-0.021,-0.0132,0.0059,0.009,0,0,0,0.0121,0.0112,0.0099,0.008,0.002,-0.001,-0.013,-0.0159,-0.0211,-0.0305,-0.0277,-0.0232,-0.0187,-0.0154,-0.0129,-0.0392,-0.0393,-0.0393,-0.0393,0.0137,0.0144,0.0155,0.0136,0.0112,0.0039,0.0032,-0.0029,-0.015,-0.0133,-0.013,0.0024,0.0061,0.008,-0.0144,-0.0144,-0.0143,-0.0143,-0.0143,0.0166,0.0202,0.0209,0.0219,0.0206,0.0197,0.017,0.0121,0.012,0.0008,0.0043,-0.0022,0.0114,-0.0133,-0.0135,-0.0136,-0.0137,-0.0138,-0.0139,0.0222,0.0244,0.0241,0.0289,0.0328,0.0304,0.0414,0.0348,0.0263,0.0293,0.0287,0.0285,0.0107,0.0283,0.0284,0.0285,0.0285,0.0286,0.0286,0.0288,0.0291,0.0325,0.036,0.0409,0.0493,0.0547,0.0591,0.0557,0.046,0.0459,0.0168,0.0154,0.0132,0.0298,0.0296,0.0295,0.0293,0.0293,0.0369,0.0364,0.0433,0.0472,0.0588,0.0763,0.0795,0.0904,0.0884,0.0887,0.0552,0.0542,0.0516,0.0495,0.0482,0.0729,0.0729,0.0729,0.0729,0.0427,0.0424,0.0522,0.0613,0.0762,0.0889,0.1137,0.1123,0.0976,0.0816,0.0812,0.0716,0.0698,0.0673,0.0648,0.0633,0.092,0.092,0.092,0.046,0.0491,0.0577,0.0663,0.0836,0.1065,0.1309,0.1265,0.0989,0.0921,0.0778,0.0754,0.0596,0.0574,0.0514,0.0483,0.0449,0,0]}],[{"header":{"parameterUnit":"m.s-1","parameterCategory":2,"la1":30.2992,"la2":30.254,"lo1":-89.0895,"lo2":-89.0443,"dy":0.0025,"dx":0.0025,"nx":19,"ny":19,"refTime":"2026-04-11T09:00:00:Z","depth":"4","parameterNumber":2,"parameterNumberName":"U-component_of_CURRENTS"},"data":[0,0,0,0.0983,0.0984,0.1137,0.1138,0.1364,0.1365,0,0,0,0,0,0,0,0,0,0,0,0.0991,0.0991,0.0983,0.0984,0.1137,0.1139,0.1364,0.1365,0,0,0,0,0,0,0,0,0,0,0,0.099,0.0991,0.0992,0.0984,0.1136,0.1139,0.1364,0.126,0,0,0,0,0,0,0,0,0,0,0.1116,0.1093,0.0991,0.0992,0.0984,0.1136,0.1139,0.1255,0.1266,0.1278,0,0.1296,0,0.1273,0.1374,0.1374,0,0,0,0.1064,0.1084,0.1095,0.0992,0.0985,0.1135,0.109,0.1262,0.1274,0.1292,0.1298,0.1305,0.1277,0.1374,0.1375,0.1597,0.1599,0,0,0.1055,0.1052,0.1087,0.1103,0.1015,0.1085,0.1094,0.127,0.1296,0.1299,0.1309,0.1281,0.1375,0.1376,0.1596,0.1598,0,0,0,0.0977,0.1046,0.1056,0.1095,0.1086,0.1087,0.1098,0.1291,0.1285,0.1311,0.1283,0.1376,0.1378,0.1594,0.1597,0.1664,0,0,0,0.0976,0.0993,0.1052,0.1056,0.1081,0.1181,0.1115,0.1277,0.1292,0.1282,0.1376,0.1379,0.1593,0.1596,0.1658,0.1685,0,0,0,0.0985,0.0993,0.1003,0.1055,0.1074,0.1177,0.1188,0.1281,0.1271,0.1374,0.1379,0.1592,0.1595,0.1653,0.1677,0.1699,0,0,0,0.099,0.1016,0.1004,0.1046,0.1072,0.1111,0.1187,0.1299,0.1394,0.1377,0.1593,0.1596,0.1652,0.1673,0.1695,0.1438,0,0,0,0.1018,0.102,0.1046,0.1035,0.1097,0.1096,0.1222,0.1409,0.1454,0.1546,0.1552,0.166,0.1677,0.1698,0.1651,0,0,0,0,0.1052,0.1087,0.1108,0.1141,0.114,0.123,0.1332,0.1414,0.1618,0.1506,0.1714,0.1723,0.1733,0.1575,0.1614,0.1613,0.1613,0.1612,0.1612,0.1067,0.1099,0.1148,0.1203,0.1246,0.1352,0.1471,0.1604,0.1637,0.1771,0.1817,0.1936,0.1779,0.1864,0.1865,0.1865,0.1865,0.1866,0.1866,0.1058,0.1083,0.1163,0.1231,0.1315,0.1418,0.1622,0.1734,0.1924,0.193,0.1935,0.1709,0.1874,0.1872,0.1871,0.187,0.1869,0.1869,0.1869,0.1043,0.106,0.1095,0.1157,0.1335,0.1509,0.1699,0.1877,0.199,0.2054,0.1878,0.1983,0.1928,0.2067,0.2068,0.2068,0.2068,0.2068,0.2068,0.0959,0.0999,0.1024,0.1135,0.1203,0.1435,0.1753,0.1859,0.2001,0.194,0.2089,0.2003,0.1996,0.1941,0.2073,0.2072,0.2071,0.2071,0.2071,0.0898,0.0914,0.0932,0.0956,0.1118,0.1241,0.1568,0.1773,0.1836,0.1829,0.1854,0.1864,0.1806,0.1804,0.1738,0.1814,0.1812,0.1809,0,0.0829,0.0847,0.0836,0.0838,0.0902,0.1141,0.1231,0.1446,0.1602,0.1535,0.1777,0.1797,0.1805,0.1728,0.1723,0.1639,0,0,0,0.0709,0.076,0.0705,0.0767,0.0791,0.1037,0.1287,0.1324,0.1566,0.1627,0.1737,0.1756,0.1932,0.2085,0.2018,0.201,0.1917,0,0]},{"header":{"parameterUnit":"m.s-1","parameterCategory":2,"la1":30.2992,"la2":30.254,"lo1":-89.0895,"lo2":-89.0443,"dy":0.0025,"dx":0.0025,"nx":19,"ny":19,"refTime":"2026-04-11T09:00:00:Z","depth":"4","parameterNumber":3,"parameterNumberName":"V-component_of_CURRENTS"},"data":[0,0,0,0.0371,0.0372,0.0338,0.0337,0.0242,0.0242,0,0,0,0,0,0,0,0,0,0,0,0.0362,0.0362,0.0371,0.0372,0.0338,0.0337,0.0243,0.0242,0,0,0,0,0,0,0,0,0,0,0,0.0362,0.0362,0.0363,0.0372,0.0338,0.0337,0.0243,0.0269,0,0,0,0,0,0,0,0,0,0,0.0303,0.0318,0.0362,0.0363,0.0372,0.0338,0.0337,0.0271,0.0268,0.0258,0,0.0274,0,0.0287,0.0239,0.0239,0,0,0,0.0323,0.032,0.0328,0.0363,0.0373,0.0339,0.0339,0.0269,0.0266,0.0254,0.0273,0.027,0.0285,0.0239,0.0238,0.0222,0.0223,0,0,0.0325,0.0332,0.033,0.0326,0.0391,0.0341,0.0339,0.0267,0.0265,0.0272,0.0268,0.0284,0.0238,0.0238,0.0222,0.0222,0,0,0,0.0363,0.0334,0.0342,0.0329,0.0345,0.0341,0.0339,0.0266,0.0275,0.0268,0.0283,0.0238,0.0238,0.0222,0.0222,0.0265,0,0,0,0.0362,0.036,0.0343,0.0344,0.0348,0.0315,0.034,0.0278,0.0272,0.0283,0.0238,0.0237,0.0222,0.0222,0.0263,0.0303,0,0,0,0.0359,0.036,0.0367,0.0345,0.0357,0.0316,0.0317,0.0276,0.0283,0.0239,0.0237,0.0222,0.0222,0.0262,0.03,0.0287,0,0,0,0.0349,0.0364,0.0367,0.0383,0.0358,0.0378,0.0317,0.0302,0.0269,0.0238,0.0222,0.0222,0.0262,0.0298,0.0285,0.0309,0,0,0,0.0361,0.0366,0.0373,0.0377,0.04,0.0377,0.0382,0.0306,0.0268,0.0233,0.0233,0.0264,0.03,0.0286,0.0332,0,0,0,0,0.0372,0.0382,0.0386,0.0403,0.0417,0.0416,0.0376,0.0341,0.028,0.0263,0.026,0.0281,0.0271,0.0281,0.0224,0.0224,0.0224,0.0224,0.0224,0.0406,0.0405,0.0428,0.0436,0.0445,0.0438,0.0413,0.0363,0.0327,0.0302,0.0312,0.0331,0.0343,0.0296,0.0296,0.0296,0.0296,0.0296,0.0296,0.0458,0.0465,0.047,0.049,0.0491,0.0507,0.0453,0.0414,0.037,0.0341,0.0327,0.0322,0.0301,0.03,0.0299,0.0299,0.0298,0.0298,0.0298,0.0477,0.0477,0.0506,0.0556,0.0572,0.0561,0.0563,0.051,0.0419,0.0415,0.0394,0.0354,0.0353,0.0397,0.0397,0.0397,0.0397,0.0397,0.0397,0.0488,0.0513,0.056,0.0612,0.0657,0.0679,0.0644,0.0603,0.0512,0.046,0.0429,0.0364,0.0361,0.0358,0.0399,0.0399,0.0398,0.0398,0.0398,0.0495,0.0515,0.0607,0.0662,0.0764,0.0782,0.075,0.0649,0.0601,0.0525,0.046,0.0456,0.0439,0.0434,0.0433,0.0498,0.0499,0.0499,0,0.0501,0.0511,0.0642,0.0742,0.0826,0.0825,0.0784,0.0718,0.059,0.0584,0.0575,0.0506,0.0501,0.0486,0.0482,0.0484,0,0,0,0.0532,0.0564,0.0657,0.0748,0.0848,0.0796,0.0766,0.0726,0.0621,0.0569,0.0511,0.0508,0.0483,0.0405,0.037,0.0366,0.036,0,0]}]]